This is the latest recevied weather packets stored in our database for station/object KB1RMA-13. If no packets are shown the sender has not sent any weather packets the latest 10 day(s).
| Time | Temp. | Humidity | Pressure | Rain* | Wind** | Luminosity | Snow |
|---|---|---|---|---|---|---|---|
| 1777123553 | 7.78° C | 54% | 1020.1 hPa | 0 mm | - | 467 W/m² | - |
| 1777123249 | 7.78° C | 55% | 1020 hPa | 0 mm | - | 534 W/m² | - |
| 1777122945 | 7.78° C | 54% | 1020.1 hPa | 0 mm | - | 592 W/m² | - |
| 1777122642 | 7.78° C | 54% | 1020 hPa | 0 mm | - | 430 W/m² | - |
| 1777122337 | 7.78° C | 54% | 1020.1 hPa | 0 mm | - | 559 W/m² | - |
| 1777122034 | 8.33° C | 53% | 1020.1 hPa | 0 mm | - | 486 W/m² | - |
| 1777121730 | 8.33° C | 54% | 1020.2 hPa | 0 mm | - | 495 W/m² | - |
| 1777121428 | 8.33° C | 56% | 1020.3 hPa | 0 mm | - | 488 W/m² | - |
| 1777121127 | 8.33° C | 54% | 1020.3 hPa | 0 mm | - | 467 W/m² | - |
| 1777120825 | 7.78° C | 56% | 1020.2 hPa | 0 mm | - | 446 W/m² | - |
| 1777120521 | 7.78° C | 56% | 1020.2 hPa | 0 mm | - | 422 W/m² | - |
| 1777120216 | 7.78° C | 56% | 1020.3 hPa | 0 mm | - | 266 W/m² | - |
| 1777119912 | 7.78° C | 58% | 1020.1 hPa | 0 mm | - | 384 W/m² | - |
| 1777119609 | 7.78° C | 57% | 1020.3 hPa | 0 mm | - | 368 W/m² | - |
| 1777119305 | 7.78° C | 59% | 1020.1 hPa | 0 mm | - | 349 W/m² | - |
| 1777119005 | 7.78° C | 62% | 1019.9 hPa | 0 mm | - | 334 W/m² | - |
| 1777118700 | 7.22° C | 61% | 1020.1 hPa | 0 mm | - | 317 W/m² | - |
| 1777118396 | 7.22° C | 62% | 1019.9 hPa | 0 mm | - | 297 W/m² | - |
| 1777118093 | 7.78° C | 64% | 1020 hPa | 0 mm | - | 272 W/m² | - |
| 1777117789 | 6.67° C | 68% | 1019.7 hPa | 0 mm | - | 248 W/m² | - |
| 1777117487 | 6.67° C | 72% | 1019.9 hPa | 0 mm | - | 216 W/m² | - |
| 1777117184 | 6.11° C | 73% | 1019.5 hPa | 0 mm | - | 172 W/m² | - |
| 1777116878 | 6.11° C | 74% | 1019.8 hPa | 0 mm | - | 153 W/m² | - |
| 1777116575 | 5.56° C | 77% | 1019.5 hPa | 0 mm | - | 149 W/m² | - |
| 1777116271 | 5° C | 79% | 1019.5 hPa | 0 mm | - | 154 W/m² | - |
* Rain latest hour (hover to see other rain measurements)
** Current wind speed in m/s (hover to see current wind gust speed)